Location: Newark
(43.7333°N, 7.4000°E)
Time: 22:41:01
(UTC+00:00)

Envisat - Pass Details

Date: 22 September 2020
Orbit: 764 x 766 km, 98.1° (Epoch: 29 October)

Event Time Altitude Azimuth Distance (km) Brightness Sun altitude
Rises 18:16:36 0° 220° (SW) 3,219 6.7 -9.7°
Reaches altitude 10° 18:20:37 10° 252° (WSW) 2,300 6.6 -10.4°
Maximum altitude 18:22:22 12° 273° (W) 2,187 6.8 -10.7°
Drops below altitude 10° 18:24:07 10° 293° (WNW) 2,306 6.9 -11.1°
Sets 18:28:11 0° 325° (NW) 3,239 7.0 -11.8°
